Location: Ku?niki
(51.4449°N, 17.8974°E)
Time: 19:27:36
(UTC+00:00)

CENTAUR R/B - Pass Details

Date: 18 September 2020
Orbit: 755 x 1433 km, 63.4° (Epoch: 02 October)

Event Time Altitude Azimuth Distance (km) Brightness Sun altitude
Rises 17:33:16 0° 309° (NW) 3,963 6.9 -6.7°
Reaches altitude 10° 17:35:56 10° 315° (NW) 3,097 6.1 -7.1°
Maximum altitude 17:43:20 51° 30° (NNE) 1,600 3.5 -8.3°
Enters shadow 17:51:21 11° 104° (ESE) 3,389 4.6 -9.5°
